Orbital Elements at Epoch 2459200.5 (2020-Dec-17.0) TDB
Reference: JPL 22 (heliocentric ecliptic J2000)
Element | Value | Uncertainty (1-sigma) | Units |
e | .1538296982369899 | 4.714e-08 | |
a | 2.663891069632365 | 1.5697e-08 | au |
q | 2.254105510254606 | 1.3395e-07 | au |
i | 13.86298038070798 | 5.5012e-06 | deg |
node | 48.52265349539385 | 1.8376e-05 | deg |
peri | 28.84768942179894 | 2.6963e-05 | deg |
M | 316.8788953534405 | 2.1081e-05 | deg |
tp | 2459390.721891912507 (2021-Jun-25.22189191) | 9.3906e-05 | TDB |
period | 1588.082718422805 4.35 | 1.4037e-05 3.843e-08 | d yr |
n | .2266884437591085 | 2.0037e-09 | deg/d |
Q | 3.073676629010124 | 1.8112e-08 | au |
|
| | Orbit Determination Parameters
Additional Information
|